Weather in Moskalvo

Russia / Sakhalin District     53°34′48″N   142°30′34″E
temp.,
°C
wind,
m/s
gust,
m/s
humid.,
%
clouds,
%
prec.,
mm/h
press.,
hPa
HPBL,
m
9 december, thu
thu923:00−13ssw58865 0.0 101888
02:00−11sw478695 0.0 101892
05:00−12ssw358980 0.0 101953
08:00−13ssw33919 0.0 102033
11:00−9ssw4786100 0.0 102092
14:00−6s498467 0.0 1018188
17:00−4s61278100 0.0 1016213
20:00−4sw9157231 0.0 1015278
10 december, fri
fri1023:00−6sw588315 0.0 1015102
02:00−9sw229087 0.0 101513
05:00−7wsw3490100 0.0 101755
08:00−8wsw3393100 0.0 101824
11:00−6w3590100 0.0 102063
14:00−2nw3583100 0.0 1021420
17:00−4nnw3490100 0.1 102248
20:00−6ne2289100 0.0 102333
11 december, sat
sat1123:00−6ene2292100 0.0 102445
02:00−5ne2396100 0.5 1023124
05:00−5nne2496100 1.2 1023133
08:00−5ne3397100 0.3 102354
11:00−4nne4796100 0.6 1023216
14:00−2ne5795100 0.6 1022520
17:00−3ne51096100 0.9 1022379
20:00−3ne61196100 0.5 1021444
12 december, sun
sun1223:00−3ne61196100 1.3 1020501
02:00−3nne61196100 0.5 1019464
05:00−4nne6109596 0.9 1018293
08:00−5nne489494 0.1 1016126
11:00−3nne61295100 0.3 1014537
14:00−2ne81193100 0.5 1012733
17:00−3ne71292100 0.7 1010468
20:00−3ne61195100 0.3 1008439
13 december, mon
mon1323:00−3nne5997100 0.6 1004296
02:00−2ne71397100 1.4 1002645
05:00−2ne101595100 3.1 999741
08:00−3ne101695100 1.8 998851
11:00−3ne101594100 3.2 998848
14:00−3ne101394100 0.7 997970
17:00−4nne81494100 1.3 998654
20:00−4n9149282 0.4 998515